| time (UTC) | temp C | wind direction | speed KPH | gust KPH | rain 1hr cm | rain 24hr cm | rain mn cm | humidity % | barometer mb |
| 20260506094522 | 12 | 27 | 1.6 | 4.8 | 0.00 | 0.00 | 0.00 | 53 | 1017.1 |
| 20260506093531 | 10 | 350 | 1.6 | 4.8 | 0.00 | 0.00 | 0.00 | 57 | 1017.1 |
| 20260506092519 | 10 | 358 | 1.6 | 3.2 | 0.00 | 0.00 | 0.00 | 58 | 1017.2 |
| 20260506091548 | 10 | 360 | 1.6 | 4.8 | 0.00 | 0.00 | 0.00 | 56 | 1017.2 |
| 20260506090557 | 10 | 12 | 1.6 | 3.2 | 0.00 | 0.00 | 0.00 | 57 | 1017.3 |
| 20260506085546 | 10 | 349 | 1.6 | 3.2 | 0.00 | 0.00 | 0.00 | 57 | 1017.4 |
| 20260506084535 | 10 | 354 | 1.6 | 4.8 | 0.00 | 0.00 | 0.00 | 58 | 1017.5 |
| 20260506083524 | 10 | 349 | 1.6 | 4.8 | 0.00 | 0.00 | 0.00 | 57 | 1017.6 |
| 20260506082533 | 11 | 27 | 1.6 | 3.2 | 0.00 | 0.00 | 0.00 | 55 | 1017.6 |
| 20260506081521 | 10 | 352 | 1.6 | 3.2 | 0.00 | 0.00 | 0.00 | 61 | 1017.6 |
| 20260506080530 | 10 | 306 | 0.0 | 3.2 | 0.00 | 0.00 | 0.00 | 61 | 1017.6 |
| 20260506073516 | 9 | 339 | 0.0 | 1.6 | 0.00 | 0.00 | 0.00 | 64 | 1017.6 |
| 20260506072525 | 8 | 321 | 0.0 | 1.6 | 0.00 | 0.00 | 0.00 | 71 | 1017.6 |
| 20260506071555 | 8 | 54 | 0.0 | 3.2 | 0.00 | 0.00 | 0.00 | 74 | 1017.6 |
| 20260506070523 | 7 | 0.0 | 0.0 | 0.00 | 0.00 | 0.00 | 79 | 1017.6 | |
| 20260506061526 | 3 | 0.0 | 0.0 | 0.00 | 0.00 | 0.00 | 92 | 1017.6 | |
| 20260506060535 | 2 | 0.0 | 0.0 | 0.00 | 0.00 | 0.00 | 93 | 1017.6 | |
| 20260506050525 | 1 | 0.0 | 0.0 | 0.00 | 0.00 | 0.00 | 93 | 1017.7 | |
| 20260506044522 | 1 | 0.0 | 0.0 | 0.00 | 0.00 | 0.00 | 93 | 1017.7 | |
| 20260506043551 | 1 | 0.0 | 0.0 | 0.00 | 0.00 | 0.00 | 92 | 1017.5 | |
| 20260506042520 | 1 | 0.0 | 0.0 | 0.00 | 0.00 | 0.00 | 92 | 1017.5 | |
| 20260506041529 | 1 | 0.0 | 0.0 | 0.00 | 0.00 | 0.00 | 91 | 1017.4 | |
| 20260506040517 | 1 | 0.0 | 0.0 | 0.00 | 0.00 | 0.00 | 91 | 1017.6 | |
| 20260506035526 | 1 | 0.0 | 0.0 | 0.00 | 0.00 | 0.00 | 91 | 1017.6 | |
| 20260506034534 | 1 | 0.0 | 0.0 | 0.00 | 0.00 | 0.00 | 91 | 1017.6 | |
| 20260506033542 | 1 | 0.0 | 0.0 | 0.00 | 0.00 | 0.00 | 91 | 1017.6 | |
| 20260506032531 | 1 | 0.0 | 0.0 | 0.00 | 0.00 | 0.00 | 91 | 1017.6 | |
| 20260506031519 | 1 | 0.0 | 0.0 | 0.00 | 0.00 | 0.00 | 90 | 1017.7 | |
| 20260506030528 | 1 | 0.0 | 0.0 | 0.00 | 0.00 | 0.00 | 90 | 1017.8 | |
| 20260506025517 | 1 | 0.0 | 0.0 | 0.00 | 0.00 | 0.00 | 89 | 1017.7 | |
| 20260506024525 | 1 | 0.0 | 0.0 | 0.00 | 0.00 | 0.00 | 89 | 1017.8 | |
| 20260506023534 | 1 | 0.0 | 0.0 | 0.00 | 0.00 | 0.00 | 89 | 1017.8 | |
| 20260506022523 | 1 | 0.0 | 0.0 | 0.00 | 0.00 | 0.00 | 89 | 1017.7 | |
| 20260506021551 | 1 | 0.0 | 0.0 | 0.00 | 0.00 | 0.00 | 88 | 1017.8 | |
| 20260506020519 | 1 | 0.0 | 0.0 | 0.00 | 0.00 | 0.00 | 87 | 1017.9 | |
| 20260506015528 | 2 | 0.0 | 0.0 | 0.00 | 0.00 | 0.00 | 86 | 1017.8 | |
| 20260506014516 | 2 | 0.0 | 0.0 | 0.00 | 0.00 | 0.00 | 85 | 1018.0 | |
| 20260506013525 | 2 | 349 | 0.0 | 1.6 | 0.00 | 0.00 | 0.00 | 86 | 1017.9 |
| 20260506012534 | 2 | 353 | 1.6 | 1.6 | 0.00 | 0.00 | 0.00 | 87 | 1018.2 |
| 20260506011523 | 2 | 0.0 | 0.0 | 0.00 | 0.00 | 0.00 | 88 | 1018.1 | |
| 20260506010532 | 2 | 0.0 | 0.0 | 0.00 | 0.00 | 0.00 | 88 | 1018.2 | |
| 20260506005520 | 2 | 0.0 | 0.0 | 0.00 | 0.00 | 0.00 | 88 | 1018.2 | |
| 20260506004528 | 2 | 0.0 | 0.0 | 0.00 | 0.00 | 0.00 | 88 | 1018.2 | |
| 20260506003517 | 2 | 0.0 | 0.0 | 0.00 | 0.00 | 0.00 | 88 | 1018.4 | |
| 20260506002526 | 2 | 0.0 | 0.0 | 0.00 | 0.00 | 0.00 | 87 | 1018.3 | |
| 20260506001535 | 2 | 0.0 | 0.0 | 0.00 | 0.00 | 0.00 | 87 | 1018.2 | |
| 20260506000523 | 2 | 0.0 | 0.0 | 0.00 | 0.00 | 0.00 | 87 | 1018.3 | |
| 20260505235532 | 2 | 0.0 | 0.0 | 0.00 | 0.00 | 0.00 | 87 | 1018.3 | |
| 20260505234521 | 3 | 0.0 | 0.0 | 0.00 | 0.00 | 0.00 | 86 | 1018.3 | |
| 20260505233531 | 3 | 0.0 | 0.0 | 0.00 | 0.00 | 0.00 | 86 | 1018.4 | |
| 20260505232519 | 3 | 0.0 | 0.0 | 0.00 | 0.00 | 0.00 | 85 | 1018.3 | |
| 20260505231526 | 3 | 0.0 | 0.0 | 0.00 | 0.00 | 0.00 | 84 | 1018.4 | |
| 20260505230535 | 3 | 333 | 0.0 | 1.6 | 0.00 | 0.00 | 0.00 | 82 | 1018.5 |
| 20260505225523 | 4 | 0.0 | 0.0 | 0.00 | 0.00 | 0.00 | 82 | 1018.4 | |
| 20260505224533 | 4 | 347 | 0.0 | 3.2 | 0.00 | 0.00 | 0.00 | 82 | 1018.5 |
| 20260505223521 | 4 | 0.0 | 0.0 | 0.00 | 0.00 | 0.00 | 81 | 1018.3 | |
| 20260505222530 | 4 | 0.0 | 0.0 | 0.00 | 0.00 | 0.00 | 81 | 1018.4 | |
| 20260505221519 | 5 | 0.0 | 0.0 | 0.00 | 0.00 | 0.00 | 80 | 1018.4 | |
| 20260505220528 | 5 | 0.0 | 0.0 | 0.00 | 0.00 | 0.00 | 79 | 1018.6 | |
| 20260505215516 | 5 | 356 | 0.0 | 1.6 | 0.00 | 0.00 | 0.00 | 78 | 1018.4 |
| 20260505214525 | 5 | 0.0 | 0.0 | 0.00 | 0.00 | 0.00 | 78 | 1018.6 | |
| 20260505213534 | 5 | 0.0 | 0.0 | 0.00 | 0.00 | 0.00 | 77 | 1018.3 | |
| 20260505212523 | 5 | 0.0 | 0.0 | 0.00 | 0.00 | 0.00 | 77 | 1018.5 | |
| 20260505211531 | 5 | 0.0 | 0.0 | 0.00 | 0.00 | 0.00 | 77 | 1018.4 | |
| 20260505210520 | 5 | 0.0 | 0.0 | 0.00 | 0.00 | 0.00 | 77 | 1018.5 | |
| 20260505205529 | 5 | 0.0 | 0.0 | 0.00 | 0.00 | 0.00 | 77 | 1018.6 | |
| 20260505204517 | 5 | 0.0 | 0.0 | 0.00 | 0.00 | 0.00 | 77 | 1018.5 | |
| 20260505203526 | 5 | 0.0 | 0.0 | 0.00 | 0.00 | 0.00 | 77 | 1018.4 | |
| 20260505202534 | 6 | 0.0 | 0.0 | 0.00 | 0.00 | 0.00 | 75 | 1018.4 | |
| 20260505201543 | 6 | 50 | 0.0 | 3.2 | 0.00 | 0.00 | 0.00 | 74 | 1018.4 |
| 20260505200532 | 6 | 13 | 1.6 | 3.2 | 0.00 | 0.00 | 0.00 | 72 | 1018.3 |
| 20260505195521 | 6 | 135 | 0.0 | 3.2 | 0.00 | 0.00 | 0.00 | 72 | 1018.4 |
| 20260505194531 | 6 | 2 | 1.6 | 3.2 | 0.00 | 0.00 | 0.00 | 71 | 1018.4 |
| 20260505193519 | 6 | 9 | 1.6 | 3.2 | 0.00 | 0.00 | 0.00 | 70 | 1018.4 |
| 20260505192528 | 6 | 61 | 1.6 | 3.2 | 0.00 | 0.00 | 0.00 | 72 | 1018.1 |
| 20260505191516 | 6 | 43 | 1.6 | 4.8 | 0.00 | 0.00 | 0.00 | 70 | 1018.1 |
| 20260505190546 | 6 | 355 | 1.6 | 4.8 | 0.00 | 0.00 | 0.00 | 69 | 1018.1 |
| 20260505185533 | 7 | 355 | 1.6 | 6.4 | 0.00 | 0.00 | 0.00 | 69 | 1018.0 |
| 20260505184522 | 7 | 124 | 1.6 | 6.4 | 0.00 | 0.00 | 0.00 | 68 | 1017.9 |
| 20260505183531 | 7 | 313 | 3.2 | 11.3 | 0.00 | 0.00 | 0.00 | 68 | 1017.9 |
| 20260505182539 | 7 | 18 | 1.6 | 4.8 | 0.00 | 0.00 | 0.00 | 70 | 1018.0 |
| 20260505181529 | 7 | 353 | 1.6 | 3.2 | 0.00 | 0.00 | 0.00 | 70 | 1017.9 |
| 20260505180517 | 7 | 12 | 1.6 | 4.8 | 0.00 | 0.00 | 0.00 | 69 | 1018.0 |
| 20260505175546 | 7 | 118 | 3.2 | 9.7 | 0.00 | 0.00 | 0.00 | 69 | 1018.0 |
| 20260505174535 | 7 | 69 | 3.2 | 9.7 | 0.00 | 0.00 | 0.00 | 70 | 1018.0 |
| 20260505173624 | 7 | 54 | 3.2 | 6.4 | 0.00 | 0.00 | 0.00 | 69 | 1018.0 |
| 20260505172532 | 7 | 26 | 1.6 | 4.8 | 0.00 | 0.00 | 0.00 | 69 | 1018.0 |
| 20260505171521 | 7 | 325 | 1.6 | 9.7 | 0.00 | 0.00 | 0.00 | 68 | 1018.0 |
| 20260505170530 | 7 | 108 | 3.2 | 6.4 | 0.00 | 0.00 | 0.00 | 69 | 1017.9 |
| 20260505165538 | 7 | 298 | 3.2 | 9.7 | 0.00 | 0.00 | 0.00 | 69 | 1017.9 |
| 20260505164527 | 7 | 55 | 3.2 | 11.3 | 0.00 | 0.00 | 0.00 | 70 | 1017.9 |
| 20260505163516 | 7 | 311 | 3.2 | 6.4 | 0.00 | 0.00 | 0.00 | 69 | 1017.9 |
| 20260505162525 | 8 | 6 | 1.6 | 4.8 | 0.00 | 0.00 | 0.00 | 69 | 1017.8 |
| 20260505161535 | 8 | 287 | 1.6 | 6.4 | 0.00 | 0.00 | 0.00 | 67 | 1017.6 |
| 20260505160523 | 8 | 72 | 1.6 | 6.4 | 0.00 | 0.00 | 0.00 | 68 | 1017.7 |
| 20260505152518 | 8 | 137 | 3.2 | 14.5 | 0.00 | 0.00 | 0.00 | 71 | 1017.7 |
| 20260505151548 | 8 | 153 | 3.2 | 6.4 | 0.00 | 0.00 | 0.00 | 73 | 1017.6 |
| 20260505150536 | 8 | 162 | 3.2 | 9.7 | 0.00 | 0.00 | 0.00 | 73 | 1017.7 |
| 20260505140527 | 8 | 201 | 4.8 | 12.9 | 0.00 | 0.00 | 0.00 | 74 | 1017.4 |
| 20260505124517 | 9 | 295 | 3.2 | 9.7 | 0.00 | 0.00 | 0.00 | 74 | 1017.0 |
| 20260505123526 | 8 | 186 | 3.2 | 9.7 | 0.00 | 0.00 | 0.00 | 75 | 1016.9 |
| 20260505122555 | 9 | 24 | 1.6 | 6.4 | 0.00 | 0.00 | 0.00 | 75 | 1016.8 |
| 20260505121523 | 9 | 144 | 3.2 | 11.3 | 0.00 | 0.00 | 0.00 | 75 | 1016.8 |
| 20260505120532 | 10 | 2 | 3.2 | 9.7 | 0.00 | 0.00 | 0.00 | 76 | 1016.8 |
| 20260505115521 | 9 | 169 | 1.6 | 4.8 | 0.00 | 0.00 | 0.00 | 76 | 1016.8 |
| 20260505114550 | 8 | 135 | 3.2 | 14.5 | 0.00 | 0.00 | 0.00 | 78 | 1016.8 |
| 20260505113518 | 8 | 130 | 4.8 | 12.9 | 0.00 | 0.00 | 0.00 | 80 | 1016.7 |
| 20260505112526 | 8 | 342 | 3.2 | 6.4 | 0.00 | 0.00 | 0.00 | 79 | 1016.6 |
| 20260505111515 | 8 | 10 | 3.2 | 9.7 | 0.00 | 0.00 | 0.00 | 79 | 1016.5 |
| 20260505110544 | 10 | 358 | 3.2 | 6.4 | 0.00 | 0.00 | 0.00 | 76 | 1016.6 |
| 20260505101528 | 12 | 344 | 3.2 | 12.9 | 0.00 | 0.00 | 0.00 | 61 | 1016.1 |
| 20260505100516 | 11 | 332 | 1.6 | 6.4 | 0.00 | 0.00 | 0.00 | 59 | 1015.8 |
| 20260505095525 | 11 | 356 | 1.6 | 6.4 | 0.00 | 0.00 | 0.00 | 60 | 1015.8 |